This is the latest recevied weather packets stored in our database for station/object K5WNG. If no packets are shown the sender has not sent any weather packets the latest 10 day(s).
| Time | Temp. | Humidity | Pressure | Rain* | Wind** | Luminosity | Snow |
|---|---|---|---|---|---|---|---|
| 1778017521 | 30.56° C | 65% | 1006 hPa | 0 mm | - | 511 W/m² | - |
| 1778017221 | 30.56° C | 65% | 1006.1 hPa | 0 mm | - | 603 W/m² | - |
| 1778016921 | 30.56° C | 65% | 1006 hPa | 0 mm | - | 636 W/m² | - |
| 1778016619 | 30.56° C | 65% | 1006.1 hPa | 0 mm | - | 622 W/m² | - |
| 1778016318 | 30.56° C | 65% | 1006.2 hPa | 0 mm | - | 657 W/m² | - |
| 1778016015 | 30° C | 65% | 1006.3 hPa | 0 mm | - | 726 W/m² | - |
| 1778015715 | 30° C | 65% | 1006.3 hPa | 0 mm | - | 581 W/m² | - |
| 1778015419 | 30° C | 66% | 1006.2 hPa | 0 mm | - | 702 W/m² | - |
| 1778015115 | 30° C | 66% | 1006.2 hPa | 0 mm | - | 690 W/m² | - |
| 1778014818 | 30° C | 66% | 1006.4 hPa | 0 mm | - | 690 W/m² | - |
| 1778014516 | 30° C | 66% | 1006.4 hPa | 0 mm | - | 690 W/m² | - |
| 1778014219 | 30.56° C | 66% | 1006.4 hPa | 0 mm | - | 503 W/m² | - |
| 1778013916 | 30° C | 66% | 1006.4 hPa | 0 mm | - | 705 W/m² | - |
| 1778013616 | 30° C | 67% | 1006.4 hPa | 0 mm | - | 858 W/m² | - |
| 1778013319 | 30° C | 67% | 1006.7 hPa | 0 mm | - | 772 W/m² | - |
| 1778013016 | 29.44° C | 69% | 1006.8 hPa | 0 mm | - | 695 W/m² | - |
| 1778012716 | 29.44° C | 68% | 1006.9 hPa | 0 mm | - | 626 W/m² | - |
| 1778012416 | 30° C | 67% | 1006.9 hPa | 0 mm | - | 525 W/m² | - |
| 1778012117 | 29.44° C | 68% | 1007 hPa | 0 mm | - | 854 W/m² | - |
| 1778011817 | 29.44° C | 69% | 1007.1 hPa | 0 mm | - | 689 W/m² | - |
| 1778011519 | 30° C | 68% | 1007.2 hPa | 0 mm | - | 556 W/m² | - |
| 1778011220 | 30° C | 68% | 1007.2 hPa | 0 mm | - | 593 W/m² | - |
| 1778010917 | 30° C | 68% | 1007.3 hPa | 0 mm | - | 772 W/m² | - |
| 1778010616 | 29.44° C | 69% | 1007.4 hPa | 0 mm | - | 986 W/m² | - |
| 1778010316 | 29.44° C | 69% | 1007.5 hPa | 0 mm | - | 604 W/m² | - |
* Rain latest hour (hover to see other rain measurements)
** Current wind speed in m/s (hover to see current wind gust speed)